CW8668 Weather Reports


time (UTC)temp
C
wind
direction
speed
KPH
gust
KPH
rain 1hr
cm
rain 24hr
cm
rain mn
cm
humidity
%
barometer
mb
20260507160016 16 45 3.2 9.7 0.00 0.20 0.03 48 1008.3
20260507154516 16 180 1.6 9.7 0.00 0.20 0.03 49 1008.2
20260507153016 16 158 1.6 8.0 0.00 0.20 0.03 45 1008.4
20260507151516 16 203 4.8 22.5 0.00 0.20 0.03 45 1008.5
20260507150016 17 203 6.4 24.1 0.00 0.20 0.03 43 1008.2
20260507144516 16 158 4.8 12.9 0.00 0.20 0.03 47 1008.3
20260507143016 16 135 4.8 20.9 0.00 0.20 0.03 47 1008.4
20260507141516 16 113 9.7 24.1 0.00 0.20 0.03 47 1008.5
20260507140016 16 68 6.4 19.3 0.00 0.20 0.03 48 1008.7
20260507134516 16 45 8.0 22.5 0.00 0.20 0.03 47 1008.7
20260507133016 16 45 6.4 17.7 0.00 0.20 0.03 45 1008.7
20260507131516 16 158 4.8 17.7 0.00 0.20 0.03 44 1008.9
20260507130016 17 270 3.2 19.3 0.00 0.20 0.03 47 1008.9
20260507124516 16 225 4.8 11.3 0.00 0.20 0.03 47 1009.3
20260507123016 16 203 4.8 14.5 0.00 0.20 0.03 48 1009.2
20260507121516 16 203 3.2 9.7 0.00 0.20 0.03 47 1009.4
20260507120016 17 203 3.2 9.7 0.00 0.20 0.03 46 1009.3
20260507114516 16 158 4.8 22.5 0.00 0.20 0.03 45 1009.6
20260507113016 16 203 3.2 11.3 0.00 0.20 0.03 45 1009.9
20260507111515 16 225 4.8 11.3 0.00 0.20 0.03 45 1009.8
20260507110015 16 135 4.8 12.9 0.00 0.20 0.03 48 1009.9
20260507104516 16 113 4.8 12.9 0.00 0.20 0.03 45 1009.9
20260507103035 16 203 3.2 11.3 0.00 0.20 0.03 40 1009.9
20260507101516 15 270 3.2 11.3 0.00 0.20 0.03 43 1010.1
20260507100015 15 225 3.2 9.7 0.00 0.20 0.03 51 1010.2
20260507094515 14 203 1.6 9.7 0.00 0.20 0.03 51 1010.6
20260507093016 13 203 3.2 11.3 0.00 0.20 0.03 58 1010.6
20260507091515 13 225 3.2 9.7 0.00 0.20 0.03 62 1010.8
20260507090036 12 225 4.8 9.7 0.00 0.20 0.03 69 1010.6
20260507084515 11 225 3.2 9.7 0.00 0.20 0.03 74 1010.6
20260507083015 10 203 1.6 4.8 0.00 0.20 0.03 81 1010.7
20260507081615 8 23 1.6 3.2 0.00 0.20 0.03 88 1010.9
20260507080016 8 0.0 3.2 0.00 0.20 0.03 88 1010.8
20260507074515 8 0.0 3.2 0.00 0.20 0.03 90 1010.9
20260507073015 7 315 1.6 4.8 0.00 0.20 0.03 90 1011.2
20260507071515 -17 0.0 0.0 0.00 0.20 0.03
20260507070017 7 0 1.6 3.2 0.00 0.20 0.03 90 1010.5
20260507064537 7 0.0 4.8 0.00 0.20 0.03 90 1010.5
20260507063017 7 68 3.2 4.8 0.03 0.20 0.03 90 1010.4
20260507061517 7 0.0 3.2 0.03 0.20 0.03 90 1010.4
20260507060057 7 0.0 3.2 0.03 0.20 0.03 90 1009.9
20260507054517 7 0.0 3.2 0.03 0.20 0.03 90 1009.9
20260507053017 6 0.0 1.6 0.00 0.18 0.00 90 1010.0
20260507051557 6 113 1.6 4.8 0.00 0.18 0.00 90 1010.0
20260507050017 6 0.0 3.2 0.00 0.18 0.00 90 1009.8
20260507044517 7 0.0 3.2 0.00 0.18 0.00 90 1009.4
20260507043017 7 68 1.6 3.2 0.00 0.18 0.00 90 1009.4
20260507041517 7 0.0 3.2 0.00 0.18 0.00 90 1009.4
20260507040017 7 0.0 4.8 0.00 0.18 0.00 89 1009.7
20260507034517 7 0.0 1.6 0.00 0.18 0.00 89 1009.6
20260507033017 7 0.0 0.0 0.00 0.18 0.00 89 1009.6
20260507031537 7 0.0 1.6 0.00 0.18 0.00 88 1009.5
20260507030017 7 0.0 3.2 0.00 0.18 0.00 88 1009.3
20260507024517 8 0.0 0.0 0.00 0.18 0.00 87 1009.3
20260507023017 8 0.0 1.6 0.00 0.18 0.00 87 1009.5
20260507021517 8 0.0 1.6 0.00 0.18 0.00 87 1009.6
20260507020017 8 0.0 3.2 0.00 0.18 0.00 87 1009.7
20260507014537 8 0.0 3.2 0.00 0.18 0.00 86 1009.9
20260507013017 8 45 1.6 4.8 0.00 0.18 0.00 86 1009.9
20260507011536 8 45 1.6 4.8 0.00 0.18 0.00 86 1010.0
20260507010037 8 45 1.6 3.2 0.00 0.18 0.00 85 1010.0
20260507004536 8 45 1.6 4.8 0.00 0.18 0.00 85 1010.2
20260507003016 8 45 3.2 9.7 0.00 0.18 0.00 84 1010.4
20260507001516 8 45 4.8 9.7 0.00 0.18 0.00 84 1010.4
20260507000016 8 23 4.8 11.3 0.00 0.18 0.18 85 1010.7
20260506234517 8 23 6.4 11.3 0.00 0.18 0.18 85 1010.7
20260506233037 8 23 3.2 9.7 0.00 0.18 0.18 85 1010.7
20260506231517 8 23 6.4 11.3 0.00 0.18 0.18 85 1010.7
20260506230017 8 23 4.8 8.0 0.00 0.18 0.18 86 1010.9
20260506224517 8 23 3.2 9.7 0.00 0.18 0.18 86 1010.9
20260506223036 8 23 3.2 8.0 0.00 0.18 0.18 86 1010.8
20260506221517 8 45 1.6 4.8 0.00 0.18 0.18 85 1010.8
20260506220017 8 23 3.2 9.7 0.00 0.18 0.18 84 1010.9
20260506214536 8 23 4.8 9.7 0.05 0.18 0.18 84 1010.8
20260506213016 8 23 6.4 16.1 0.13 0.18 0.18 83 1010.8
20260506211516 8 23 3.2 11.3 0.18 0.18 0.18 82 1010.6
20260506210016 8 0.0 4.8 0.18 0.18 0.18 80 1011.0
20260506204516 10 0 1.6 4.8 0.13 0.13 0.13 76 1011.0
20260506203016 10 0 3.2 9.7 0.05 0.05 0.05 75 1010.8
20260506201516 10 45 9.7 22.5 0.00 0.00 0.00 74 1010.3
20260506200016 10 45 12.9 22.5 0.00 0.00 0.00 73 1010.1
20260506194516 11 45 11.3 22.5 0.00 0.00 0.00 72 1009.6
20260506193017 11 45 11.3 19.3 0.00 0.00 0.00 71 1009.5
20260506191516 11 45 11.3 22.5 0.00 0.00 0.00 70 1009.3
20260506190017 12 45 9.7 19.3 0.00 0.00 0.00 66 1009.1
20260506184516 12 45 6.4 16.1 0.00 0.00 0.00 62 1008.8
20260506183017 12 23 3.2 9.7 0.00 0.00 0.00 64 1008.5
20260506181516 13 23 1.6 4.8 0.00 0.00 0.00 59 1008.4
20260506180017 13 0 1.6 4.8 0.00 0.00 0.00 57 1008.4
20260506174536 13 23 3.2 11.3 0.00 0.00 0.00 55 1008.1
20260506173016 13 68 3.2 11.3 0.00 0.00 0.00 54 1008.1
20260506171516 14 270 4.8 16.1 0.00 0.03 0.00 52 1008.0
20260506170016 15 270 1.6 11.3 0.00 0.23 0.00 48 1007.8
20260506164521 14 113 4.8 19.3 0.00 0.41 0.00 49 1007.8
20260506163016 14 113 6.4 16.1 0.00 0.43 0.00 50 1007.6
20260506161516 15 113 4.8 16.1 0.00 0.43 0.00 47 1007.5